Time,TemperatureF,DewpointF,PressureIn,WindDirection,WindDirectionDegrees,WindSpeedMPH,WindSpeedGustMPH,Humidity,HourlyPrecipIn,Conditions,Clouds,dailyrainin,SoftwareType,DateUTC
2013-03-23 00:00:00,48.8,30.4,30.04,WNW,290,0.0,5.0,49,0.00,,,0.00,WUHU216DAVISVP2,2013-03-23 07:00:00,
2013-03-23 00:05:00,48.5,30.7,30.04,WNW,290,0.0,3.0,50,0.00,,,0.00,WUHU216DAVISVP2,2013-03-23 07:05:00,
2013-03-23 00:10:00,48.2,30.9,30.04,WNW,290,0.0,3.0,51,0.00,,,0.00,WUHU216DAVISVP2,2013-03-23 07:10:00,
2013-03-23 00:15:00,47.8,31.0,30.04,WNW,290,0.0,3.0,52,0.00,,,0.00,WUHU216DAVISVP2,2013-03-23 07:15:00,
2013-03-23 00:20:00,47.4,30.6,30.04,WNW,290,2.0,3.0,52,0.00,,,0.00,WUHU216DAVISVP2,2013-03-23 07:20:00,
2013-03-23 00:25:00,47.2,30.9,30.04,WNW,290,1.0,4.0,53,0.00,,,0.00,WUHU216DAVISVP2,2013-03-23 07:25:00,
2013-03-23 00:30:00,47.0,30.8,30.04,WNW,290,0.0,4.0,53,0.00,,,0.00,WUHU216DAVISVP2,2013-03-23 07:30:00,
2013-03-23 00:35:00,46.9,30.7,30.05,WNW,290,2.0,3.0,53,0.00,,,0.00,WUHU216DAVISVP2,2013-03-23 07:35:00,
2013-03-23 00:40:00,46.8,30.6,30.04,WNW,290,0.0,3.0,53,0.00,,,0.00,WUHU216DAVISVP2,2013-03-23 07:40:00,
2013-03-23 00:45:00,46.7,31.0,30.04,WNW,294,0.0,4.0,54,0.00,,,0.00,WUHU216DAVISVP2,2013-03-23 07:45:00,
2013-03-23 00:50:00,46.5,30.8,30.04,WNW,295,0.0,4.0,54,0.00,,,0.00,WUHU216DAVISVP2,2013-03-23 07:50:00,
2013-03-23 00:55:00,46.4,30.7,30.04,WNW,295,2.0,4.0,54,0.00,,,0.00,WUHU216DAVISVP2,2013-03-23 07:55:00,
2013-03-23 01:00:00,46.3,31.0,30.04,WNW,300,3.0,4.0,55,0.00,,,0.00,WUHU216DAVISVP2,2013-03-23 08:00:00,
2013-03-23 01:05:00,46.2,30.9,30.04,WNW,300,1.0,3.0,55,0.00,,,0.00,WUHU216DAVISVP2,2013-03-23 08:05:00,
2013-03-23 01:10:00,46.2,30.9,30.04,WNW,300,2.0,3.0,55,0.00,,,0.00,WUHU216DAVISVP2,2013-03-23 08:10:00,
2013-03-23 01:15:00,46.1,30.9,30.04,WNW,300,4.0,4.0,55,0.00,,,0.00,WUHU216DAVISVP2,2013-03-23 08:15:00,
2013-03-23 01:20:00,46.0,31.2,30.05,NW,313,1.0,5.0,56,0.00,,,0.00,WUHU216DAVISVP2,2013-03-23 08:20:00,
2013-03-23 01:25:00,45.9,31.1,30.05,NW,309,0.0,5.0,56,0.00,,,0.00,WUHU216DAVISVP2,2013-03-23 08:25:00,
2013-03-23 01:30:00,45.9,31.1,30.05,NW,309,2.0,5.0,56,0.00,,,0.00,WUHU216DAVISVP2,2013-03-23 08:30:00,
2013-03-23 01:35:00,45.9,31.1,30.05,WNW,299,2.0,5.0,56,0.00,,,0.00,WUHU216DAVISVP2,2013-03-23 08:35:00,
2013-03-23 01:40:00,45.9,31.1,30.05,NW,325,2.0,5.0,56,0.00,,,0.00,WUHU216DAVISVP2,2013-03-23 08:40:00,
2013-03-23 01:45:00,45.9,31.1,30.05,NW,325,2.0,5.0,56,0.00,,,0.00,WUHU216DAVISVP2,2013-03-23 08:45:00,
2013-03-23 01:50:00,45.8,31.0,30.05,NW,325,0.0,4.0,56,0.00,,,0.00,WUHU216DAVISVP2,2013-03-23 08:50:00,
2013-03-23 01:55:00,45.8,31.5,30.05,NW,325,2.0,4.0,57,0.00,,,0.00,WUHU216DAVISVP2,2013-03-23 08:55:00,
2013-03-23 02:00:00,45.6,31.7,30.05,NW,325,0.0,4.0,58,0.00,,,0.00,WUHU216DAVISVP2,2013-03-23 09:00:00,
2013-03-23 02:05:00,45.5,32.1,30.05,NW,325,1.0,3.0,59,0.00,,,0.00,WUHU216DAVISVP2,2013-03-23 09:05:00,
2013-03-23 02:10:00,45.3,31.9,30.05,NW,325,0.0,3.0,59,0.00,,,0.00,WUHU216DAVISVP2,2013-03-23 09:10:00,
2013-03-23 02:15:00,45.2,31.8,30.05,NW,325,0.0,3.0,59,0.00,,,0.00,WUHU216DAVISVP2,2013-03-23 09:15:00,
2013-03-23 02:20:00,45.1,31.7,30.06,NW,325,1.0,3.0,59,0.00,,,0.00,WUHU216DAVISVP2,2013-03-23 09:20:00,
2013-03-23 02:25:00,44.9,31.5,30.05,NW,325,0.0,3.0,59,0.00,,,0.00,WUHU216DAVISVP2,2013-03-23 09:25:00,
2013-03-23 02:30:00,44.3,31.8,30.05,NW,325,0.0,2.0,61,0.00,,,0.00,WUHU216DAVISVP2,2013-03-23 09:30:00,
2013-03-23 02:35:00,43.6,31.4,30.06,NW,325,0.0,1.0,62,0.00,,,0.00,WUHU216DAVISVP2,2013-03-23 09:35:00,
2013-03-23 02:40:00,43.3,31.5,30.05,NW,325,0.0,1.0,63,0.00,,,0.00,WUHU216DAVISVP2,2013-03-23 09:40:00,
2013-03-23 02:45:00,42.9,31.6,30.05,NW,325,0.0,0.0,64,0.00,,,0.00,WUHU216DAVISVP2,2013-03-23 09:45:00,
2013-03-23 02:50:00,42.4,31.5,30.06,NW,325,0.0,0.0,65,0.00,,,0.00,WUHU216DAVISVP2,2013-03-23 09:50:00,
2013-03-23 02:55:00,42.2,31.6,30.05,NW,325,0.0,0.0,66,0.00,,,0.00,WUHU216DAVISVP2,2013-03-23 09:55:00,
2013-03-23 03:00:00,42.1,31.6,30.05,NW,325,1.0,1.0,66,0.00,,,0.00,WUHU216DAVISVP2,2013-03-23 10:00:00,
2013-03-23 03:05:00,42.0,31.8,30.05,NW,325,0.0,1.0,67,0.00,,,0.00,WUHU216DAVISVP2,2013-03-23 10:05:00,
2013-03-23 03:10:00,42.5,32.3,30.05,NW,325,0.0,1.0,67,0.00,,,0.00,WUHU216DAVISVP2,2013-03-23 10:10:00,
2013-03-23 03:15:00,42.7,32.6,30.05,NW,325,0.0,1.0,67,0.00,,,0.00,WUHU216DAVISVP2,2013-03-23 10:15:00,
2013-03-23 03:20:00,42.8,32.7,30.05,NW,325,1.0,1.0,67,0.00,,,0.00,WUHU216DAVISVP2,2013-03-23 10:20:00,
2013-03-23 03:25:00,42.8,32.7,30.05,NW,325,0.0,1.0,67,0.00,,,0.00,WUHU216DAVISVP2,2013-03-23 10:25:00,
2013-03-23 03:30:00,42.3,31.8,30.05,NW,325,0.0,1.0,66,0.00,,,0.00,WUHU216DAVISVP2,2013-03-23 10:30:00,
2013-03-23 03:35:00,42.0,31.9,30.06,NW,325,0.0,0.0,67,0.00,,,0.00,WUHU216DAVISVP2,2013-03-23 10:35:00,
2013-03-23 03:40:00,41.4,31.3,30.05,NW,325,0.0,0.0,67,0.00,,,0.00,WUHU216DAVISVP2,2013-03-23 10:40:00,
2013-03-23 03:45:00,41.2,31.5,30.05,NW,325,0.0,0.0,68,0.00,,,0.00,WUHU216DAVISVP2,2013-03-23 10:45:00,
2013-03-23 03:50:00,41.2,31.9,30.06,NW,325,0.0,0.0,69,0.00,,,0.00,WUHU216DAVISVP2,2013-03-23 10:50:00,
2013-03-23 03:55:00,41.3,32.0,30.06,NW,325,0.0,0.0,69,0.00,,,0.00,WUHU216DAVISVP2,2013-03-23 10:55:00,
2013-03-23 04:00:00,41.6,31.9,30.06,NW,325,0.0,0.0,68,0.00,,,0.00,WUHU216DAVISVP2,2013-03-23 11:00:00,
2013-03-23 04:05:00,41.7,33.1,30.06,NW,325,0.0,0.0,71,0.00,,,0.00,WUHU216DAVISVP2,2013-03-23 11:05:00,
2013-03-23 04:10:00,41.7,32.7,30.05,NW,325,0.0,0.0,70,0.00,,,0.00,WUHU216DAVISVP2,2013-03-23 11:10:00,
2013-03-23 04:15:00,41.6,32.6,30.05,NW,325,0.0,0.0,70,0.00,,,0.00,WUHU216DAVISVP2,2013-03-23 11:15:00,
2013-03-23 04:20:00,41.4,32.4,30.05,NW,325,0.0,1.0,70,0.00,,,0.00,WUHU216DAVISVP2,2013-03-23 11:20:00,
2013-03-23 04:25:00,41.0,32.7,30.05,NW,325,0.0,1.0,72,0.00,,,0.00,WUHU216DAVISVP2,2013-03-23 11:25:00,
2013-03-23 04:30:00,41.1,32.8,30.05,NW,325,0.0,0.0,72,0.00,,,0.00,WUHU216DAVISVP2,2013-03-23 11:30:00,
2013-03-23 04:35:00,40.8,32.5,30.05,NW,325,0.0,0.0,72,0.00,,,0.00,WUHU216DAVISVP2,2013-03-23 11:35:00,
2013-03-23 04:40:00,40.9,32.9,30.05,NW,325,0.0,0.0,73,0.00,,,0.00,WUHU216DAVISVP2,2013-03-23 11:40:00,
2013-03-23 04:45:00,40.9,32.9,30.05,NW,325,0.0,0.0,73,0.00,,,0.00,WUHU216DAVISVP2,2013-03-23 11:45:00,
2013-03-23 04:50:00,40.6,33.0,30.05,NW,325,0.0,0.0,74,0.00,,,0.00,WUHU216DAVISVP2,2013-03-23 11:50:00,
2013-03-23 04:55:00,40.6,33.0,30.05,NW,325,0.0,0.0,74,0.00,,,0.00,WUHU216DAVISVP2,2013-03-23 11:55:00,
2013-03-23 05:00:00,40.5,32.9,30.06,NW,325,0.0,0.0,74,0.00,,,0.00,WUHU216DAVISVP2,2013-03-23 12:00:00,
2013-03-23 05:05:00,40.6,33.0,30.05,NW,325,0.0,0.0,74,0.00,,,0.00,WUHU216DAVISVP2,2013-03-23 12:05:00,
2013-03-23 05:10:00,40.8,32.9,30.06,NW,325,0.0,0.0,73,0.00,,,0.00,WUHU216DAVISVP2,2013-03-23 12:10:00,
2013-03-23 05:15:00,41.2,33.3,30.06,NW,325,0.0,1.0,73,0.00,,,0.00,WUHU216DAVISVP2,2013-03-23 12:15:00,
2013-03-23 05:20:00,41.1,32.8,30.06,NW,325,0.0,1.0,72,0.00,,,0.00,WUHU216DAVISVP2,2013-03-23 12:20:00,
2013-03-23 05:25:00,40.7,32.4,30.06,NW,325,0.0,1.0,72,0.00,,,0.00,WUHU216DAVISVP2,2013-03-23 12:25:00,
2013-03-23 05:30:00,39.9,32.7,30.07,NW,325,0.0,0.0,75,0.00,,,0.00,WUHU216DAVISVP2,2013-03-23 12:30:00,
2013-03-23 05:35:00,39.5,32.3,30.07,NW,325,0.0,0.0,75,0.00,,,0.00,WUHU216DAVISVP2,2013-03-23 12:35:00,
2013-03-23 05:40:00,39.0,32.1,30.07,NW,325,0.0,0.0,76,0.00,,,0.00,WUHU216DAVISVP2,2013-03-23 12:40:00,
2013-03-23 05:45:00,38.7,32.1,30.07,NW,325,0.0,0.0,77,0.00,,,0.00,WUHU216DAVISVP2,2013-03-23 12:45:00,
2013-03-23 05:50:00,38.4,31.8,30.07,NW,325,0.0,0.0,77,0.00,,,0.00,WUHU216DAVISVP2,2013-03-23 12:50:00,
2013-03-23 05:55:00,38.1,31.8,30.08,NW,325,0.0,0.0,78,0.00,,,0.00,WUHU216DAVISVP2,2013-03-23 12:55:00,
2013-03-23 06:00:00,38.2,32.3,30.08,NW,325,0.0,0.0,79,0.00,,,0.00,WUHU216DAVISVP2,2013-03-23 13:00:00,
2013-03-23 06:05:00,38.6,32.7,30.08,NW,325,0.0,0.0,79,0.00,,,0.00,WUHU216DAVISVP2,2013-03-23 13:05:00,
2013-03-23 06:10:00,38.6,32.7,30.08,NW,325,0.0,0.0,79,0.00,,,0.00,WUHU216DAVISVP2,2013-03-23 13:10:00,
2013-03-23 06:15:00,38.6,32.6,30.08,NW,325,0.0,0.0,79,0.00,,,0.00,WUHU216DAVISVP2,2013-03-23 13:15:00,
2013-03-23 06:20:00,38.9,32.6,30.08,NW,325,0.0,0.0,78,0.00,,,0.00,WUHU216DAVISVP2,2013-03-23 13:20:00,
2013-03-23 06:25:00,38.9,32.3,30.08,NW,325,0.0,0.0,77,0.00,,,0.00,WUHU216DAVISVP2,2013-03-23 13:25:00,
2013-03-23 06:30:00,39.1,32.5,30.08,NW,325,0.0,0.0,77,0.00,,,0.00,WUHU216DAVISVP2,2013-03-23 13:30:00,
2013-03-23 06:35:00,39.3,32.7,30.08,NW,325,0.0,0.0,77,0.00,,,0.00,WUHU216DAVISVP2,2013-03-23 13:35:00,
2013-03-23 06:40:00,39.1,32.2,30.08,NW,325,0.0,0.0,76,0.00,,,0.00,WUHU216DAVISVP2,2013-03-23 13:40:00,
2013-03-23 06:45:00,39.0,32.1,30.09,NW,325,0.0,0.0,76,0.00,,,0.00,WUHU216DAVISVP2,2013-03-23 13:45:00,
2013-03-23 06:50:00,38.5,31.6,30.09,NW,325,0.0,0.0,76,0.00,,,0.00,WUHU216DAVISVP2,2013-03-23 13:50:00,
2013-03-23 06:55:00,38.7,32.4,30.09,NW,325,0.0,0.0,78,0.00,,,0.00,WUHU216DAVISVP2,2013-03-23 13:55:00,
2013-03-23 07:00:00,38.4,32.8,30.09,NW,325,0.0,0.0,80,0.00,,,0.00,WUHU216DAVISVP2,2013-03-23 14:00:00,
2013-03-23 07:05:00,38.4,32.5,30.09,NW,325,0.0,0.0,79,0.00,,,0.00,WUHU216DAVISVP2,2013-03-23 14:05:00,
2013-03-23 07:10:00,38.4,32.5,30.09,NW,325,0.0,0.0,79,0.00,,,0.00,WUHU216DAVISVP2,2013-03-23 14:10:00,
2013-03-23 07:15:00,38.2,32.6,30.09,NW,325,0.0,0.0,80,0.00,,,0.00,WUHU216DAVISVP2,2013-03-23 14:15:00,
2013-03-23 07:20:00,38.2,32.6,30.10,NW,325,0.0,0.0,80,0.00,,,0.00,WUHU216DAVISVP2,2013-03-23 14:20:00,
2013-03-23 07:25:00,38.3,32.7,30.10,NW,325,0.0,0.0,80,0.00,,,0.00,WUHU216DAVISVP2,2013-03-23 14:25:00,
2013-03-23 07:30:00,38.7,33.1,30.11,NW,325,0.0,0.0,80,0.00,,,0.00,WUHU216DAVISVP2,2013-03-23 14:30:00,
2013-03-23 07:35:00,39.1,33.2,30.11,NW,325,0.0,0.0,79,0.00,,,0.00,WUHU216DAVISVP2,2013-03-23 14:35:00,
2013-03-23 07:40:00,39.7,33.1,30.11,NW,325,0.0,0.0,77,0.00,,,0.00,WUHU216DAVISVP2,2013-03-23 14:40:00,
2013-03-23 07:45:00,40.3,33.1,30.12,NW,325,0.0,0.0,75,0.00,,,0.00,WUHU216DAVISVP2,2013-03-23 14:45:00,
2013-03-23 07:50:00,40.9,33.6,30.11,NW,325,0.0,0.0,75,0.00,,,0.00,WUHU216DAVISVP2,2013-03-23 14:50:00,
2013-03-23 07:55:00,41.7,33.4,30.11,NW,325,0.0,0.0,72,0.00,,,0.00,WUHU216DAVISVP2,2013-03-23 14:55:00,
2013-03-23 08:00:00,42.1,33.8,30.11,NW,325,0.0,0.0,72,0.00,,,0.00,WUHU216DAVISVP2,2013-03-23 15:00:00,
2013-03-23 08:05:00,42.4,34.1,30.11,NW,325,0.0,2.0,72,0.00,,,0.00,WUHU216DAVISVP2,2013-03-23 15:05:00,
2013-03-23 08:10:00,42.7,33.7,30.12,NW,325,0.0,2.0,70,0.00,,,0.00,WUHU216DAVISVP2,2013-03-23 15:10:00,
2013-03-23 08:15:00,43.0,34.3,30.12,NW,325,0.0,0.0,71,0.00,,,0.00,WUHU216DAVISVP2,2013-03-23 15:15:00,
2013-03-23 08:20:00,43.6,33.5,30.12,NW,325,0.0,0.0,67,0.00,,,0.00,WUHU216DAVISVP2,2013-03-23 15:20:00,
2013-03-23 08:25:00,44.3,33.0,30.12,NW,325,0.0,2.0,64,0.00,,,0.00,WUHU216DAVISVP2,2013-03-23 15:25:00,
2013-03-23 08:30:00,45.1,33.7,30.13,NW,325,0.0,2.0,64,0.00,,,0.00,WUHU216DAVISVP2,2013-03-23 15:30:00,
2013-03-23 08:35:00,46.1,33.9,30.13,NW,325,2.0,2.0,62,0.00,,,0.00,WUHU216DAVISVP2,2013-03-23 15:35:00,
2013-03-23 08:40:00,46.5,33.0,30.12,NW,325,1.0,4.0,59,0.00,,,0.00,WUHU216DAVISVP2,2013-03-23 15:40:00,
2013-03-23 08:45:00,47.2,34.1,30.12,NW,325,2.0,4.0,60,0.00,,,0.00,WUHU216DAVISVP2,2013-03-23 15:45:00,
2013-03-23 08:50:00,47.9,34.3,30.12,NW,325,0.0,3.0,59,0.00,,,0.00,WUHU216DAVISVP2,2013-03-23 15:50:00,
2013-03-23 08:55:00,48.6,34.6,30.13,NW,317,6.0,6.0,58,0.00,,,0.00,WUHU216DAVISVP2,2013-03-23 15:55:00,
2013-03-23 09:00:00,49.1,34.6,30.13,North,9,3.0,7.0,57,0.00,,,0.00,WUHU216DAVISVP2,2013-03-23 16:00:00,
2013-03-23 09:05:00,49.5,34.5,30.12,NNW,333,6.0,7.0,56,0.00,,,0.00,WUHU216DAVISVP2,2013-03-23 16:05:00,
2013-03-23 09:10:00,49.6,35.1,30.12,NNW,336,0.0,7.0,57,0.00,,,0.00,WUHU216DAVISVP2,2013-03-23 16:10:00,
2013-03-23 09:15:00,50.0,34.5,30.12,NNW,341,4.0,8.0,55,0.00,,,0.00,WUHU216DAVISVP2,2013-03-23 16:15:00,
2013-03-23 09:20:00,50.6,35.1,30.12,NNW,329,2.0,8.0,55,0.00,,,0.00,WUHU216DAVISVP2,2013-03-23 16:20:00,
2013-03-23 09:25:00,50.8,34.3,30.12,NW,305,5.0,7.0,53,0.00,,,0.00,WUHU216DAVISVP2,2013-03-23 16:25:00,
2013-03-23 09:30:00,51.0,34.0,30.12,NW,317,5.0,7.0,52,0.00,,,0.00,WUHU216DAVISVP2,2013-03-23 16:30:00,
2013-03-23 09:35:00,51.4,34.9,30.12,NW,320,6.0,6.0,53,0.00,,,0.00,WUHU216DAVISVP2,2013-03-23 16:35:00,
2013-03-23 09:40:00,51.4,34.4,30.13,NW,315,3.0,6.0,52,0.00,,,0.00,WUHU216DAVISVP2,2013-03-23 16:40:00,
2013-03-23 09:45:00,51.5,34.5,30.13,NNW,327,4.0,7.0,52,0.00,,,0.00,WUHU216DAVISVP2,2013-03-23 16:45:00,
2013-03-23 09:50:00,51.8,35.2,30.13,North,5,4.0,7.0,53,0.00,,,0.00,WUHU216DAVISVP2,2013-03-23 16:50:00,
2013-03-23 09:55:00,52.1,35.0,30.13,NW,316,4.0,8.0,52,0.00,,,0.00,WUHU216DAVISVP2,2013-03-23 16:55:00,
2013-03-23 10:00:00,52.6,36.0,30.13,WNW,298,4.0,8.0,53,0.00,,,0.00,WUHU216DAVISVP2,2013-03-23 17:00:00,
2013-03-23 10:05:00,52.8,35.7,30.14,NW,309,1.0,8.0,52,0.00,,,0.00,WUHU216DAVISVP2,2013-03-23 17:05:00,
2013-03-23 10:10:00,52.8,35.2,30.14,NW,323,5.0,8.0,51,0.00,,,0.00,WUHU216DAVISVP2,2013-03-23 17:10:00,
2013-03-23 10:15:00,53.2,35.5,30.14,WNW,285,10.0,10.0,51,0.00,,,0.00,WUHU216DAVISVP2,2013-03-23 17:15:00,
2013-03-23 10:20:00,53.3,35.1,30.14,NNW,338,3.0,10.0,50,0.00,,,0.00,WUHU216DAVISVP2,2013-03-23 17:20:00,
2013-03-23 10:25:00,53.5,35.3,30.14,NNW,338,7.0,10.0,50,0.00,,,0.00,WUHU216DAVISVP2,2013-03-23 17:25:00,
2013-03-23 10:30:00,54.5,36.2,30.13,NNW,331,0.0,9.0,50,0.00,,,0.00,WUHU216DAVISVP2,2013-03-23 17:30:00,
2013-03-23 10:35:00,54.8,36.0,30.14,NW,317,4.0,8.0,49,0.00,,,0.00,WUHU216DAVISVP2,2013-03-23 17:35:00,
2013-03-23 10:40:00,55.4,36.5,30.14,North,349,4.0,7.0,49,0.00,,,0.00,WUHU216DAVISVP2,2013-03-23 17:40:00,
2013-03-23 10:45:00,55.7,35.7,30.14,NNW,330,7.0,9.0,47,0.00,,,0.00,WUHU216DAVISVP2,2013-03-23 17:45:00,
2013-03-23 10:50:00,55.5,35.5,30.13,NNE,16,0.0,9.0,47,0.00,,,0.00,WUHU216DAVISVP2,2013-03-23 17:50:00,
2013-03-23 10:55:00,56.2,35.6,30.13,NW,323,7.0,8.0,46,0.00,,,0.00,WUHU216DAVISVP2,2013-03-23 17:55:00,
2013-03-23 11:00:00,56.4,36.4,30.14,NNW,335,4.0,8.0,47,0.00,,,0.00,WUHU216DAVISVP2,2013-03-23 18:00:00,
2013-03-23 11:05:00,56.5,36.5,30.13,NW,318,4.0,8.0,47,0.00,,,0.00,WUHU216DAVISVP2,2013-03-23 18:05:00,
2013-03-23 11:10:00,56.4,35.8,30.13,NNW,342,2.0,7.0,46,0.00,,,0.00,WUHU216DAVISVP2,2013-03-23 18:10:00,
2013-03-23 11:15:00,57.1,36.4,30.13,WNW,301,2.0,6.0,46,0.00,,,0.00,WUHU216DAVISVP2,2013-03-23 18:15:00,
2013-03-23 11:20:00,57.5,36.2,30.13,NW,324,4.0,6.0,45,0.00,,,0.00,WUHU216DAVISVP2,2013-03-23 18:20:00,
2013-03-23 11:25:00,57.8,36.5,30.13,North,350,4.0,5.0,45,0.00,,,0.00,WUHU216DAVISVP2,2013-03-23 18:25:00,
2013-03-23 11:30:00,58.2,36.3,30.13,NNW,337,2.0,6.0,44,0.00,,,0.00,WUHU216DAVISVP2,2013-03-23 18:30:00,
2013-03-23 11:35:00,58.5,36.0,30.13,NNW,341,0.0,6.0,43,0.00,,,0.00,WUHU216DAVISVP2,2013-03-23 18:35:00,
2013-03-23 11:40:00,59.1,34.6,30.12,NE,52,0.0,6.0,40,0.00,,,0.00,WUHU216DAVISVP2,2013-03-23 18:40:00,
2013-03-23 11:45:00,59.6,37.0,30.12,ENE,66,0.0,4.0,43,0.00,,,0.00,WUHU216DAVISVP2,2013-03-23 18:45:00,
2013-03-23 11:50:00,60.1,38.0,30.12,NNW,336,6.0,6.0,44,0.00,,,0.00,WUHU216DAVISVP2,2013-03-23 18:50:00,
2013-03-23 11:55:00,58.6,36.0,30.12,North,360,4.0,6.0,43,0.00,,,0.00,WUHU216DAVISVP2,2013-03-23 18:55:00,
2013-03-23 12:00:00,59.2,37.8,30.12,North,350,0.0,6.0,45,0.00,,,0.00,WUHU216DAVISVP2,2013-03-23 19:00:00,
2013-03-23 12:05:00,60.1,37.4,30.11,NNW,344,0.0,5.0,43,0.00,,,0.00,WUHU216DAVISVP2,2013-03-23 19:05:00,
2013-03-23 12:10:00,60.3,36.4,30.12,WNW,295,1.0,4.0,41,0.00,,,0.00,WUHU216DAVISVP2,2013-03-23 19:10:00,
2013-03-23 12:15:00,60.4,37.7,30.11,NNW,336,0.0,5.0,43,0.00,,,0.00,WUHU216DAVISVP2,2013-03-23 19:15:00,
2013-03-23 12:20:00,60.9,38.1,30.11,SSW,207,0.0,5.0,43,0.00,,,0.00,WUHU216DAVISVP2,2013-03-23 19:20:00,
2013-03-23 12:25:00,62.0,37.9,30.11,NNE,15,2.0,6.0,41,0.00,,,0.00,WUHU216DAVISVP2,2013-03-23 19:25:00,
2013-03-23 12:30:00,61.7,37.6,30.11,NNW,329,5.0,6.0,41,0.00,,,0.00,WUHU216DAVISVP2,2013-03-23 19:30:00,
2013-03-23 12:35:00,60.9,36.9,30.10,WNW,289,3.0,6.0,41,0.00,,,0.00,WUHU216DAVISVP2,2013-03-23 19:35:00,
2013-03-23 12:40:00,61.6,38.2,30.10,WSW,249,0.0,6.0,42,0.00,,,0.00,WUHU216DAVISVP2,2013-03-23 19:40:00,
2013-03-23 12:45:00,63.6,38.7,30.10,ESE,120,0.0,6.0,40,0.00,,,0.00,WUHU216DAVISVP2,2013-03-23 19:45:00,
2013-03-23 12:50:00,62.4,38.9,30.10,NNE,27,2.0,6.0,42,0.00,,,0.00,WUHU216DAVISVP2,2013-03-23 19:50:00,
2013-03-23 12:55:00,63.2,38.3,30.10,NNW,332,0.0,3.0,40,0.00,,,0.00,WUHU216DAVISVP2,2013-03-23 19:55:00,
2013-03-23 13:00:00,63.5,37.9,30.09,WNW,289,0.0,4.0,39,0.00,,,0.00,WUHU216DAVISVP2,2013-03-23 20:00:00,
2013-03-23 13:05:00,63.2,39.0,30.09,NNW,336,1.0,5.0,41,0.00,,,0.00,WUHU216DAVISVP2,2013-03-23 20:05:00,
2013-03-23 13:10:00,63.4,38.5,30.09,NNW,336,0.0,5.0,40,0.00,,,0.00,WUHU216DAVISVP2,2013-03-23 20:10:00,
2013-03-23 13:15:00,63.0,38.1,30.09,NNW,336,0.0,3.0,40,0.00,,,0.00,WUHU216DAVISVP2,2013-03-23 20:15:00,
2013-03-23 13:20:00,64.5,37.5,30.09,NNW,336,0.0,3.0,37,0.00,,,0.00,WUHU216DAVISVP2,2013-03-23 20:20:00,
2013-03-23 13:25:00,65.0,38.6,30.09,ESE,105,0.0,3.0,38,0.00,,,0.00,WUHU216DAVISVP2,2013-03-23 20:25:00,
2013-03-23 13:30:00,65.5,39.0,30.09,SE,127,0.0,5.0,38,0.00,,,0.00,WUHU216DAVISVP2,2013-03-23 20:30:00,
2013-03-23 13:35:00,66.7,39.4,30.08,ESE,104,4.0,6.0,37,0.00,,,0.00,WUHU216DAVISVP2,2013-03-23 20:35:00,
2013-03-23 13:40:00,66.9,38.2,30.08,ENE,57,0.0,6.0,35,0.00,,,0.00,WUHU216DAVISVP2,2013-03-23 20:40:00,
2013-03-23 13:45:00,65.6,39.8,30.08,SSE,149,5.0,5.0,39,0.00,,,0.00,WUHU216DAVISVP2,2013-03-23 20:45:00,
2013-03-23 13:50:00,66.1,38.2,30.08,SSE,150,1.0,5.0,36,0.00,,,0.00,WUHU216DAVISVP2,2013-03-23 20:50:00,
2013-03-23 13:55:00,67.1,39.1,30.07,South,177,0.0,5.0,36,0.00,,,0.00,WUHU216DAVISVP2,2013-03-23 20:55:00,
2013-03-23 14:00:00,67.8,41.1,30.07,ESE,114,0.0,5.0,38,0.00,,,0.00,WUHU216DAVISVP2,2013-03-23 21:00:00,
2013-03-23 14:05:00,67.8,38.2,30.07,South,182,0.0,5.0,34,0.00,,,0.00,WUHU216DAVISVP2,2013-03-23 21:05:00,
2013-03-23 14:10:00,68.0,38.4,30.07,South,184,0.0,5.0,34,0.00,,,0.00,WUHU216DAVISVP2,2013-03-23 21:10:00,
2013-03-23 14:15:00,67.1,39.1,30.06,South,184,0.0,4.0,36,0.00,,,0.00,WUHU216DAVISVP2,2013-03-23 21:15:00,
2013-03-23 14:20:00,66.8,38.8,30.07,South,185,3.0,4.0,36,0.00,,,0.00,WUHU216DAVISVP2,2013-03-23 21:20:00,
2013-03-23 14:25:00,67.5,37.9,30.06,East,92,4.0,5.0,34,0.00,,,0.00,WUHU216DAVISVP2,2013-03-23 21:25:00,
2013-03-23 14:30:00,67.5,37.2,30.06,East,92,0.0,5.0,33,0.00,,,0.00,WUHU216DAVISVP2,2013-03-23 21:30:00,
2013-03-23 14:35:00,67.6,38.8,30.06,East,92,0.0,5.0,35,0.00,,,0.00,WUHU216DAVISVP2,2013-03-23 21:35:00,
2013-03-23 14:40:00,67.6,38.0,30.06,NW,325,0.0,3.0,34,0.00,,,0.00,WUHU216DAVISVP2,2013-03-23 21:40:00,
2013-03-23 14:45:00,68.3,38.7,30.05,SSW,208,0.0,5.0,34,0.00,,,0.00,WUHU216DAVISVP2,2013-03-23 21:45:00,
2013-03-23 14:50:00,68.1,38.5,30.05,West,263,0.0,5.0,34,0.00,,,0.00,WUHU216DAVISVP2,2013-03-23 21:50:00,
2013-03-23 14:55:00,68.0,38.4,30.05,West,270,2.0,6.0,34,0.00,,,0.00,WUHU216DAVISVP2,2013-03-23 21:55:00,
2013-03-23 15:00:00,67.8,39.7,30.05,WNW,287,0.0,6.0,36,0.00,,,0.00,WUHU216DAVISVP2,2013-03-23 22:00:00,
2013-03-23 15:05:00,68.1,39.2,30.05,WNW,295,4.0,7.0,35,0.00,,,0.00,WUHU216DAVISVP2,2013-03-23 22:05:00,
2013-03-23 15:10:00,68.5,41.0,30.05,WSW,243,0.0,8.0,37,0.00,,,0.00,WUHU216DAVISVP2,2013-03-23 22:10:00,
2013-03-23 15:15:00,67.8,38.2,30.05,WNW,298,0.0,8.0,34,0.00,,,0.00,WUHU216DAVISVP2,2013-03-23 22:15:00,
2013-03-23 15:20:00,68.0,39.9,30.05,West,275,2.0,5.0,36,0.00,,,0.00,WUHU216DAVISVP2,2013-03-23 22:20:00,
2013-03-23 15:25:00,67.8,39.7,30.04,NW,317,2.0,8.0,36,0.00,,,0.00,WUHU216DAVISVP2,2013-03-23 22:25:00,
2013-03-23 15:30:00,67.7,39.8,30.04,NW,312,6.0,8.0,36,0.00,,,0.00,WUHU216DAVISVP2,2013-03-23 22:30:00,
2013-03-23 15:35:00,67.6,39.7,30.04,NW,310,0.0,7.0,36,0.00,,,0.00,WUHU216DAVISVP2,2013-03-23 22:35:00,
2013-03-23 15:40:00,69.0,40.2,30.04,NW,310,0.0,5.0,35,0.00,,,0.00,WUHU216DAVISVP2,2013-03-23 22:40:00,
2013-03-23 15:45:00,69.2,40.4,30.04,NNE,13,1.0,6.0,35,0.00,,,0.00,WUHU216DAVISVP2,2013-03-23 22:45:00,
2013-03-23 15:50:00,69.1,40.8,30.04,NNE,13,0.0,6.0,36,0.00,,,0.00,WUHU216DAVISVP2,2013-03-23 22:50:00,
2013-03-23 15:55:00,69.5,41.2,30.04,NNE,28,0.0,5.0,36,0.00,,,0.00,WUHU216DAVISVP2,2013-03-23 22:55:00,
2013-03-23 16:00:00,69.2,40.9,30.03,NNE,21,1.0,6.0,36,0.00,,,0.00,WUHU216DAVISVP2,2013-03-23 23:00:00,
2013-03-23 16:05:00,69.1,40.3,30.03,NNE,24,1.0,6.0,35,0.00,,,0.00,WUHU216DAVISVP2,2013-03-23 23:05:00,
2013-03-23 16:10:00,68.2,40.2,30.03,WNW,298,0.0,4.0,36,0.00,,,0.00,WUHU216DAVISVP2,2013-03-23 23:10:00,
2013-03-23 16:15:00,68.3,40.8,30.03,WNW,298,0.0,4.0,37,0.00,,,0.00,WUHU216DAVISVP2,2013-03-23 23:15:00,
2013-03-23 16:20:00,69.2,40.9,30.03,NNW,345,5.0,5.0,36,0.00,,,0.00,WUHU216DAVISVP2,2013-03-23 23:20:00,
2013-03-23 16:25:00,68.8,39.8,30.03,North,360,0.0,6.0,35,0.00,,,0.00,WUHU216DAVISVP2,2013-03-23 23:25:00,
2013-03-23 16:30:00,68.3,40.8,30.03,NNE,15,3.0,6.0,37,0.00,,,0.00,WUHU216DAVISVP2,2013-03-23 23:30:00,
2013-03-23 16:35:00,68.0,40.6,30.03,NNE,15,0.0,6.0,37,0.00,,,0.00,WUHU216DAVISVP2,2013-03-23 23:35:00,
2013-03-23 16:40:00,67.9,40.5,30.03,NNE,15,1.0,4.0,37,0.00,,,0.00,WUHU216DAVISVP2,2013-03-23 23:40:00,
2013-03-23 16:45:00,67.7,41.0,30.02,NNE,15,0.0,3.0,38,0.00,,,0.00,WUHU216DAVISVP2,2013-03-23 23:45:00,
2013-03-23 16:50:00,67.6,40.2,30.02,North,350,4.0,6.0,37,0.00,,,0.00,WUHU216DAVISVP2,2013-03-23 23:50:00,
2013-03-23 16:55:00,67.5,41.0,30.02,NNW,348,0.0,6.0,38,0.00,,,0.00,WUHU216DAVISVP2,2013-03-23 23:55:00,
2013-03-23 17:00:00,67.4,40.9,30.02,NW,320,4.0,6.0,38,0.00,,,0.00,WUHU216DAVISVP2,2013-03-24 00:00:00,
2013-03-23 17:05:00,67.3,40.8,30.02,NW,323,4.0,8.0,38,0.00,,,0.00,WUHU216DAVISVP2,2013-03-24 00:05:00,
2013-03-23 17:10:00,67.2,41.4,30.02,WNW,296,0.0,8.0,39,0.00,,,0.00,WUHU216DAVISVP2,2013-03-24 00:10:00,
2013-03-23 17:15:00,67.2,42.0,30.02,NW,309,3.0,7.0,40,0.00,,,0.00,WUHU216DAVISVP2,2013-03-24 00:15:00,
2013-03-23 17:20:00,67.1,41.8,30.02,NW,317,3.0,7.0,40,0.00,,,0.00,WUHU216DAVISVP2,2013-03-24 00:20:00,
2013-03-23 17:25:00,67.1,41.8,30.02,NW,317,0.0,7.0,40,0.00,,,0.00,WUHU216DAVISVP2,2013-03-24 00:25:00,
2013-03-23 17:30:00,67.1,40.5,30.02,North,355,0.0,7.0,38,0.00,,,0.00,WUHU216DAVISVP2,2013-03-24 00:30:00,
2013-03-23 17:35:00,67.1,41.2,30.02,NNW,345,4.0,7.0,39,0.00,,,0.00,WUHU216DAVISVP2,2013-03-24 00:35:00,
2013-03-23 17:40:00,66.9,41.0,30.02,North,355,2.0,7.0,39,0.00,,,0.00,WUHU216DAVISVP2,2013-03-24 00:40:00,
2013-03-23 17:45:00,66.8,40.2,30.02,North,355,0.0,6.0,38,0.00,,,0.00,WUHU216DAVISVP2,2013-03-24 00:45:00,
2013-03-23 17:50:00,66.7,40.8,30.02,North,355,4.0,6.0,39,0.00,,,0.00,WUHU216DAVISVP2,2013-03-24 00:50:00,
2013-03-23 17:55:00,66.6,40.7,30.02,NNW,339,0.0,6.0,39,0.00,,,0.00,WUHU216DAVISVP2,2013-03-24 00:55:00,
2013-03-23 18:00:00,66.5,39.9,30.02,NNW,346,0.0,5.0,38,0.00,,,0.00,WUHU216DAVISVP2,2013-03-24 01:00:00,
2013-03-23 18:05:00,66.5,39.9,30.01,NNW,344,1.0,5.0,38,0.00,,,0.00,WUHU216DAVISVP2,2013-03-24 01:05:00,
2013-03-23 18:10:00,66.2,40.4,30.01,NNW,340,4.0,5.0,39,0.00,,,0.00,WUHU216DAVISVP2,2013-03-24 01:10:00,
2013-03-23 18:15:00,66.0,40.2,30.01,NNW,340,3.0,4.0,39,0.00,,,0.00,WUHU216DAVISVP2,2013-03-24 01:15:00,
2013-03-23 18:20:00,65.9,40.9,30.01,NNW,340,4.0,4.0,40,0.00,,,0.00,WUHU216DAVISVP2,2013-03-24 01:20:00,
2013-03-23 18:25:00,65.8,42.1,30.02,NNW,340,0.0,4.0,42,0.00,,,0.00,WUHU216DAVISVP2,2013-03-24 01:25:00,
2013-03-23 18:30:00,65.4,41.7,30.02,NW,313,0.0,5.0,42,0.00,,,0.00,WUHU216DAVISVP2,2013-03-24 01:30:00,
2013-03-23 18:35:00,65.2,42.1,30.02,NW,313,4.0,5.0,43,0.00,,,0.00,WUHU216DAVISVP2,2013-03-24 01:35:00,
2013-03-23 18:40:00,65.0,41.9,30.02,NW,319,4.0,5.0,43,0.00,,,0.00,WUHU216DAVISVP2,2013-03-24 01:40:00,
2013-03-23 18:45:00,64.8,41.8,30.02,NW,319,0.0,5.0,43,0.00,,,0.00,WUHU216DAVISVP2,2013-03-24 01:45:00,
2013-03-23 18:50:00,64.7,42.3,30.02,NW,319,0.0,4.0,44,0.00,,,0.00,WUHU216DAVISVP2,2013-03-24 01:50:00,
2013-03-23 18:55:00,64.5,42.1,30.02,NW,319,0.0,3.0,44,0.00,,,0.00,WUHU216DAVISVP2,2013-03-24 01:55:00,
2013-03-23 19:00:00,64.2,41.8,30.02,NW,319,0.0,3.0,44,0.00,,,0.00,WUHU216DAVISVP2,2013-03-24 02:00:00,
2013-03-23 19:05:00,64.1,41.7,30.02,NW,319,0.0,4.0,44,0.00,,,0.00,WUHU216DAVISVP2,2013-03-24 02:05:00,
2013-03-23 19:10:00,63.9,41.5,30.02,NW,319,0.0,4.0,44,0.00,,,0.00,WUHU216DAVISVP2,2013-03-24 02:10:00,
2013-03-23 19:15:00,63.6,41.2,30.02,NW,319,1.0,2.0,44,0.00,,,0.00,WUHU216DAVISVP2,2013-03-24 02:15:00,
2013-03-23 19:20:00,63.3,41.5,30.02,NW,319,0.0,3.0,45,0.00,,,0.00,WUHU216DAVISVP2,2013-03-24 02:20:00,
2013-03-23 19:25:00,62.9,41.8,30.02,NW,319,0.0,3.0,46,0.00,,,0.00,WUHU216DAVISVP2,2013-03-24 02:25:00,
2013-03-23 19:30:00,62.5,41.4,30.03,NW,319,0.0,2.0,46,0.00,,,0.00,WUHU216DAVISVP2,2013-03-24 02:30:00,
2013-03-23 19:35:00,62.3,41.8,30.03,NW,319,0.0,3.0,47,0.00,,,0.00,WUHU216DAVISVP2,2013-03-24 02:35:00,
2013-03-23 19:40:00,62.1,41.6,30.03,NW,319,2.0,3.0,47,0.00,,,0.00,WUHU216DAVISVP2,2013-03-24 02:40:00,
2013-03-23 19:45:00,61.8,41.3,30.03,NW,319,0.0,2.0,47,0.00,,,0.00,WUHU216DAVISVP2,2013-03-24 02:45:00,
2013-03-23 19:50:00,61.6,41.7,30.03,NW,319,0.0,2.0,48,0.00,,,0.00,WUHU216DAVISVP2,2013-03-24 02:50:00,
2013-03-23 19:55:00,60.9,42.1,30.03,NW,319,0.0,1.0,50,0.00,,,0.00,WUHU216DAVISVP2,2013-03-24 02:55:00,
2013-03-23 20:00:00,60.2,42.0,30.03,NW,319,0.0,0.0,51,0.00,,,0.00,WUHU216DAVISVP2,2013-03-24 03:00:00,
2013-03-23 20:05:00,59.7,42.1,30.03,NW,319,0.0,0.0,52,0.00,,,0.00,WUHU216DAVISVP2,2013-03-24 03:05:00,
2013-03-23 20:10:00,59.8,41.7,30.03,NW,319,0.0,0.0,51,0.00,,,0.00,WUHU216DAVISVP2,2013-03-24 03:10:00,
2013-03-23 20:15:00,60.0,42.3,30.04,NW,319,0.0,2.0,52,0.00,,,0.00,WUHU216DAVISVP2,2013-03-24 03:15:00,
2013-03-23 20:20:00,60.0,42.3,30.04,NW,319,1.0,3.0,52,0.00,,,0.00,WUHU216DAVISVP2,2013-03-24 03:20:00,
2013-03-23 20:25:00,59.9,42.2,30.03,NW,319,2.0,3.0,52,0.00,,,0.00,WUHU216DAVISVP2,2013-03-24 03:25:00,
2013-03-23 20:30:00,59.6,42.4,30.03,NW,319,3.0,3.0,53,0.00,,,0.00,WUHU216DAVISVP2,2013-03-24 03:30:00,
2013-03-23 20:35:00,59.5,42.4,30.04,NW,319,0.0,3.0,53,0.00,,,0.00,WUHU216DAVISVP2,2013-03-24 03:35:00,
2013-03-23 20:40:00,59.4,42.8,30.04,NW,319,2.0,3.0,54,0.00,,,0.00,WUHU216DAVISVP2,2013-03-24 03:40:00,
2013-03-23 20:45:00,59.4,42.8,30.04,NW,319,0.0,3.0,54,0.00,,,0.00,WUHU216DAVISVP2,2013-03-24 03:45:00,
2013-03-23 20:50:00,59.3,42.7,30.04,NW,319,0.0,3.0,54,0.00,,,0.00,WUHU216DAVISVP2,2013-03-24 03:50:00,
2013-03-23 20:55:00,59.0,42.4,30.04,NW,319,0.0,3.0,54,0.00,,,0.00,WUHU216DAVISVP2,2013-03-24 03:55:00,
2013-03-23 21:00:00,58.9,42.3,30.05,NW,319,0.0,3.0,54,0.00,,,0.00,WUHU216DAVISVP2,2013-03-24 04:00:00,
2013-03-23 21:05:00,58.6,42.6,30.04,NW,319,0.0,3.0,55,0.00,,,0.00,WUHU216DAVISVP2,2013-03-24 04:05:00,
2013-03-23 21:10:00,58.3,42.3,30.05,NW,319,0.0,2.0,55,0.00,,,0.00,WUHU216DAVISVP2,2013-03-24 04:10:00,
2013-03-23 21:15:00,57.9,42.4,30.05,NW,319,0.0,2.0,56,0.00,,,0.00,WUHU216DAVISVP2,2013-03-24 04:15:00,
2013-03-23 21:20:00,57.8,42.8,30.05,NW,319,0.0,3.0,57,0.00,,,0.00,WUHU216DAVISVP2,2013-03-24 04:20:00,
2013-03-23 21:25:00,57.5,42.9,30.05,NW,319,1.0,3.0,58,0.00,,,0.00,WUHU216DAVISVP2,2013-03-24 04:25:00,
2013-03-23 21:30:00,57.2,42.7,30.05,NW,319,0.0,3.0,58,0.00,,,0.00,WUHU216DAVISVP2,2013-03-24 04:30:00,
2013-03-23 21:35:00,56.9,42.8,30.06,NW,319,3.0,3.0,59,0.00,,,0.00,WUHU216DAVISVP2,2013-03-24 04:35:00,
2013-03-23 21:40:00,56.7,43.1,30.06,NW,319,0.0,4.0,60,0.00,,,0.00,WUHU216DAVISVP2,2013-03-24 04:40:00,
2013-03-23 21:45:00,56.3,42.7,30.06,NW,319,3.0,4.0,60,0.00,,,0.00,WUHU216DAVISVP2,2013-03-24 04:45:00,
2013-03-23 21:50:00,56.1,43.0,30.06,NW,319,0.0,3.0,61,0.00,,,0.00,WUHU216DAVISVP2,2013-03-24 04:50:00,
2013-03-23 21:55:00,55.8,42.7,30.06,NW,319,0.0,2.0,61,0.00,,,0.00,WUHU216DAVISVP2,2013-03-24 04:55:00,
2013-03-23 22:00:00,55.8,42.7,30.06,NW,319,1.0,2.0,61,0.00,,,0.00,WUHU216DAVISVP2,2013-03-24 05:00:00,
2013-03-23 22:05:00,55.7,42.6,30.06,NW,319,0.0,2.0,61,0.00,,,0.00,WUHU216DAVISVP2,2013-03-24 05:05:00,
2013-03-23 22:10:00,55.5,42.8,30.06,NW,319,0.0,2.0,62,0.00,,,0.00,WUHU216DAVISVP2,2013-03-24 05:10:00,
2013-03-23 22:15:00,55.1,42.9,30.06,NW,319,0.0,2.0,63,0.00,,,0.00,WUHU216DAVISVP2,2013-03-24 05:15:00,
2013-03-23 22:20:00,54.6,42.8,30.06,NW,319,0.0,1.0,64,0.00,,,0.00,WUHU216DAVISVP2,2013-03-24 05:20:00,
2013-03-23 22:25:00,54.4,42.6,30.06,NW,319,0.0,2.0,64,0.00,,,0.00,WUHU216DAVISVP2,2013-03-24 05:25:00,
2013-03-23 22:30:00,54.2,42.4,30.06,NW,319,0.0,2.0,64,0.00,,,0.00,WUHU216DAVISVP2,2013-03-24 05:30:00,
2013-03-23 22:35:00,53.8,42.4,30.06,NW,319,0.0,1.0,65,0.00,,,0.00,WUHU216DAVISVP2,2013-03-24 05:35:00,
2013-03-23 22:40:00,53.8,42.4,30.06,NW,319,0.0,0.0,65,0.00,,,0.00,WUHU216DAVISVP2,2013-03-24 05:40:00,
2013-03-23 22:45:00,53.8,42.4,30.06,NW,319,0.0,0.0,65,0.00,,,0.00,WUHU216DAVISVP2,2013-03-24 05:45:00,
2013-03-23 22:50:00,53.9,42.5,30.07,NW,319,0.0,1.0,65,0.00,,,0.00,WUHU216DAVISVP2,2013-03-24 05:50:00,
2013-03-23 22:55:00,53.9,42.5,30.06,NW,319,0.0,2.0,65,0.00,,,0.00,WUHU216DAVISVP2,2013-03-24 05:55:00,
2013-03-23 23:00:00,53.8,42.8,30.07,NW,319,0.0,2.0,66,0.00,,,0.00,WUHU216DAVISVP2,2013-03-24 06:00:00,
2013-03-23 23:05:00,53.7,42.7,30.06,NW,319,0.0,2.0,66,0.00,,,0.00,WUHU216DAVISVP2,2013-03-24 06:05:00,
2013-03-23 23:10:00,53.5,42.9,30.06,NW,319,0.0,2.0,67,0.00,,,0.00,WUHU216DAVISVP2,2013-03-24 06:10:00,
2013-03-23 23:15:00,53.2,42.6,30.07,NW,319,0.0,2.0,67,0.00,,,0.00,WUHU216DAVISVP2,2013-03-24 06:15:00,
2013-03-23 23:20:00,53.0,42.5,30.07,NW,319,0.0,2.0,67,0.00,,,0.00,WUHU216DAVISVP2,2013-03-24 06:20:00,
2013-03-23 23:25:00,53.1,42.4,30.06,NW,319,0.0,2.0,67,0.00,,,0.00,WUHU216DAVISVP2,2013-03-24 06:25:00,
2013-03-23 23:30:00,53.1,42.4,30.07,NW,319,0.0,2.0,67,0.00,,,0.00,WUHU216DAVISVP2,2013-03-24 06:30:00,
2013-03-23 23:35:00,52.8,42.1,30.06,NW,319,0.0,3.0,67,0.00,,,0.00,WUHU216DAVISVP2,2013-03-24 06:35:00,
2013-03-23 23:40:00,52.6,41.9,30.07,NW,319,2.0,3.0,67,0.00,,,0.00,WUHU216DAVISVP2,2013-03-24 06:40:00,
2013-03-23 23:45:00,52.5,42.0,30.06,NW,319,1.0,3.0,67,0.00,,,0.00,WUHU216DAVISVP2,2013-03-24 06:45:00,
2013-03-23 23:50:00,52.5,42.0,30.06,NW,319,0.0,3.0,67,0.00,,,0.00,WUHU216DAVISVP2,2013-03-24 06:50:00,
2013-03-23 23:55:00,52.3,41.8,30.06,NW,319,2.0,2.0,67,0.00,,,0.00,WUHU216DAVISVP2,2013-03-24 06:55:00,